HB9TJR-3 Weather Reports


time (UTC)temp
C
wind
direction
speed
KPH
gust
KPH
rain 1hr
cm
rain 24hr
cm
rain mn
cm
humidity
%
barometer
mb
20260505194334 8 0 0.0 0.0 0.00 0.00 0.00 84 860.2
20260505192734 8 0 0.0 0.0 0.00 0.00 0.00 85 860.2
20260505191133 8 0 0.0 0.0 0.00 0.00 0.00 85 860.0
20260505185534 8 0 0.0 0.0 0.00 0.00 0.00 86 859.7
20260505183934 8 0 0.0 0.0 0.00 0.00 0.00 89 859.8
20260505182334 8 0 0.0 0.0 0.00 0.00 0.00 88 859.9
20260505180734 8 0 0.0 0.0 0.00 0.00 0.00 90 859.9
20260505175134 8 0 0.0 0.0 0.00 0.00 0.00 89 859.8
20260505173534 8 0 0.0 0.0 0.00 0.00 0.00 88 860.0
20260505171934 8 0 0.0 0.0 0.00 0.00 0.00 88 859.8
20260505170333 8 0 0.0 0.0 0.00 0.00 0.00 88 859.8
20260505164734 7 0 0.0 0.0 0.00 0.00 0.00 90 859.9
20260505163134 7 0 0.0 0.0 0.00 0.00 0.00 91 860.0
20260505161534 7 0 0.0 0.0 0.00 0.00 0.00 92 860.2
20260505152734 8 0 0.0 0.0 0.00 0.00 0.00 92 860.1
20260505151135 9 0 0.0 0.0 0.00 0.00 0.00 95 860.0
20260505124734 8 0 0.0 0.0 0.00 0.00 0.00 92 859.9
20260505123134 8 0 0.0 0.0 0.00 0.00 0.00 90 859.8
20260505121533 8 0 0.0 0.0 0.00 0.00 0.00 91 859.9
20260505115934 7 0 0.0 0.0 0.00 0.00 0.00 92 860.1
20260505114335 8 0 0.0 0.0 0.00 0.00 0.00 93 860.2
20260505112734 7 0 0.0 0.0 0.00 0.00 0.00 97 860.1
20260505111134 8 0 0.0 0.0 0.00 0.00 0.00 97 860.1
20260505100734 8 0 0.0 0.0 0.00 0.00 0.00 90 859.9
20260505095134 8 0 0.0 0.0 0.00 0.00 0.00 89 859.9
20260505093534 8 0 0.0 0.0 0.00 0.00 0.00 89 859.8
20260505091934 8 0 0.0 0.0 0.00 0.00 0.00 88 859.7
20260505090334 8 0 0.0 0.0 0.00 0.00 0.00 89 859.7
20260505084734 8 0 0.0 0.0 0.00 0.00 0.00 89 859.6
20260505083134 7 0 0.0 0.0 0.00 0.00 0.00 89 859.8
20260505081534 7 0 0.0 0.0 0.00 0.00 0.00 89 859.7
20260505075934 7 0 0.0 0.0 0.00 0.00 0.00 89 859.7
20260505072735 7 0 0.0 0.0 0.00 0.00 0.00 89 859.7
20260505071134 7 0 0.0 0.0 0.00 0.00 0.00 90 859.7
20260505065534 7 0 0.0 0.0 0.00 0.00 0.00 92 859.8
20260505063934 7 0 0.0 0.0 0.00 0.00 0.00 92 859.9
20260505062334 7 0 0.0 0.0 0.00 0.00 0.00 93 860.0
20260505060734 7 0 0.0 0.0 0.00 0.00 0.00 92 860.2
20260505055133 7 0 0.0 0.0 0.00 0.00 0.00 91 860.5
20260505053534 7 0 0.0 0.0 0.00 0.00 0.00 93 860.4
20260505051934 7 0 0.0 0.0 0.00 0.00 0.00 95 860.6
20260505050334 7 0 0.0 0.0 0.00 0.00 0.00 95 860.6
20260505041534 7 0 0.0 0.0 0.00 0.00 0.00 91 860.7
20260505035934 8 0 0.0 0.0 0.00 0.00 0.00 90 860.6
20260505034334 8 0 0.0 0.0 0.00 0.00 0.00 90 860.7
20260505032734 8 0 0.0 0.0 0.00 0.00 0.00 89 860.9
20260505031135 8 0 0.0 0.0 0.00 0.00 0.00 87 860.9
20260505025534 8 0 0.0 0.0 0.00 0.00 0.00 87 860.9
20260505023934 8 0 0.0 0.0 0.00 0.00 0.00 87 861.0
20260505022334 8 0 0.0 0.0 0.00 0.00 0.00 88 861.2
20260505020734 8 0 0.0 0.0 0.00 0.00 0.00 87 861.4
20260505015134 9 0 0.0 0.0 0.00 0.00 0.00 86 861.5
20260505013535 9 0 0.0 0.0 0.00 0.00 0.00 86 861.6
20260505011934 9 0 0.0 0.0 0.00 0.00 0.00 86 861.6
20260505010334 8 0 0.0 0.0 0.00 0.00 0.00 85 861.6
20260505004734 9 0 0.0 0.0 0.00 0.00 0.00 84 861.6
20260505003134 8 0 0.0 0.0 0.00 0.00 0.00 84 861.6
20260505001535 9 0 0.0 0.0 0.00 0.00 0.00 84 861.9
20260504235934 9 0 0.0 0.0 0.00 0.00 0.00 84 862.0
20260504232734 8 0 0.0 0.0 0.00 0.00 0.00 84 862.1
20260504231134 8 0 0.0 0.0 0.00 0.00 0.00 84 862.1
20260504225534 9 0 0.0 0.0 0.00 0.00 0.00 82 862.2
20260504223934 8 0 0.0 0.0 0.00 0.00 0.00 83 862.2
20260504222333 8 0 0.0 0.0 0.00 0.00 0.00 85 862.4
20260504220734 8 0 0.0 0.0 0.00 0.00 0.00 85 862.6
20260504215134 8 0 0.0 0.0 0.00 0.00 0.00 87 862.8
20260504213534 8 0 0.0 0.0 0.00 0.00 0.00 85 862.7
20260504211934 8 0 0.0 0.0 0.00 0.00 0.00 86 862.7
20260504210334 8 0 0.0 0.0 0.00 0.00 0.00 86 862.9
20260504204734 8 0 0.0 0.0 0.00 0.00 0.00 86 863.0
20260504203134 8 0 0.0 0.0 0.00 0.00 0.00 84 862.9
20260504201534 8 0 0.0 0.0 0.00 0.00 0.00 85 863.1
20260504195934 8 0 0.0 0.0 0.00 0.00 0.00 86 863.2